2021 GZ9 |
ephemeris |
date |
magn |
radius |
delta |
ra |
dec |
elong |
phase |
Today | 20 Oct 2025 | 28.4 | 1.029 AU | 2.021 AU | 13h53m | -10°45' | 3.7° | 3.6° |
2021 GZ9 - 2025-10-20
astro.vanbuitenen.nl
The interactive orbit chart above shows the body's path through the solar system and its position at the given date.
Green and blue lines are shown perpendicular to the ecliptic plane: Green if the path is above the ecliptic plane, blue if it is below.
(Left-click and drag to rotate the view; Right-click and drag to move the view; Use scroll wheel to zoom in our out.)
The orbital elements of 2021 GZ9 are:
e (Eccentricity) : 0.2155256
a (Semimajor axis) : 1.3076080
i (Inclination) : 3.46303
Ω (Longitude of ascending node) : 60.95712
ω (Argument of perihelion) : 141.75923
M (Mean anomaly) : 256.16330
Epoch : 2025 May 05
L (Longitude of perihelion) : 22.76725
B (Latitude of perihelion) : 2.14270
P (Orbital period in years) : 1.50
The light curve chart below shows the estimated development of the minor planet's magnitude.
The all-sky chart below shows the path of the minor planet over the same period as the light curve. The current position is marked yellow.
The following chart shows the path of the minor planet in the next few days. The field of view is optimized for (~10x50) binoculars and finderscopes.
Ephemerides:
Date Time RA (2000) DEC (2000) delta radius elong phase PA magn
2025-10-20 00:00 UT 13 53 21.2 -10 45 52 2.021 1.029 3.7 3.6 98 28.4
2025-10-20 11:39 UT 13 55 13.2 -10 56 59 2.021 1.029 3.7 3.6 98 28.4
2025-10-21 00:00 UT 13 57 12.1 -11 08 44 2.021 1.030 3.8 3.6 98 28.4
2025-10-22 00:00 UT 14 01 03.4 -11 31 25 2.022 1.030 3.8 3.6 99 28.4
2025-10-23 00:00 UT 14 04 55.3 -11 53 53 2.022 1.031 3.8 3.7 99 28.4
2025-10-24 00:00 UT 14 08 47.7 -12 16 09 2.023 1.032 3.8 3.7 99 28.4
2025-10-25 00:00 UT 14 12 40.7 -12 38 12 2.023 1.033 3.8 3.7 99 28.4
2025-10-26 00:00 UT 14 16 34.1 -13 00 02 2.024 1.034 3.8 3.7 100 28.4
2025-10-27 00:00 UT 14 20 28.2 -13 21 37 2.025 1.035 3.8 3.7 100 28.4
2025-10-28 00:00 UT 14 24 22.7 -13 42 58 2.025 1.036 3.9 3.7 100 28.4
Terminology:
delta: distance between minor planet and earth in AU
radius: distance between minor planet and sun in AU
magn: magnitude (brightness) estimate
ra: right ascension in hours (24h = 360deg)
dec: declination in degrees
elong: elongation in degrees (angle sun-earth-minor planet)
phase: phase angle in degrees (angle sun-minor planet-earth)
AU: Astronomical Unit (mean distance between earth and sun: 149597870.7 km
Orbital elements provided by the MPC (Minor Planet Center).
Calculations by a modified version of AAPlus, a C# implementation of the AA+ project by PJ Naughter from the algorithms presented in the book "Astronomical Algorithms" by Jean Meeus.
NGC2000 dso catalog and star labels from VizieR as provided by the Strasbourg astronomical Data Center.
Tycho2 catalog from the ESO archive.